TimeEST,TemperatureF,Dew PointF,Humidity,Sea Level PressureIn,VisibilityMPH,Wind Direction,Wind SpeedMPH,Gust SpeedMPH,PrecipitationIn,Events,Conditions,WindDirDegrees,DateUTC
12:20 AM,24.8,15.8,69,30.27,10.0,Variable,4.6,-,N/A,,Overcast,0,2012-12-06 05:20:00
12:56 AM,25.0,16.0,69,30.36,10.0,North,4.6,-,N/A,,Overcast,350,2012-12-06 05:56:00
1:48 AM,24.8,15.8,69,30.29,10.0,WNW,5.8,-,N/A,,Overcast,300,2012-12-06 06:48:00
1:56 AM,25.0,16.0,69,30.38,10.0,NW,6.9,-,N/A,,Overcast,320,2012-12-06 06:56:00
2:56 AM,24.1,15.1,69,30.39,10.0,NNW,4.6,-,N/A,,Overcast,330,2012-12-06 07:56:00
3:56 AM,21.9,14.0,72,30.38,10.0,NNW,3.5,-,N/A,,Overcast,340,2012-12-06 08:56:00
4:18 AM,21.2,15.8,80,30.29,10.0,NNW,4.6,-,N/A,,Overcast,330,2012-12-06 09:18:00
4:56 AM,21.9,15.1,75,30.38,10.0,Calm,Calm,-,N/A,,Mostly Cloudy,0,2012-12-06 09:56:00
5:44 AM,21.2,15.8,80,30.27,10.0,Calm,Calm,-,N/A,,Scattered Clouds,0,2012-12-06 10:44:00
5:56 AM,21.9,15.1,75,30.36,10.0,ESE,3.5,-,N/A,,Clear,110,2012-12-06 10:56:00
6:56 AM,21.0,15.1,78,30.37,10.0,SE,5.8,-,N/A,,Clear,140,2012-12-06 11:56:00
7:56 AM,21.9,15.1,75,30.36,10.0,SE,6.9,-,N/A,,Clear,130,2012-12-06 12:56:00
8:56 AM,24.1,16.0,71,30.37,10.0,SE,8.1,-,N/A,,Clear,130,2012-12-06 13:56:00
9:56 AM,27.0,17.1,66,30.35,10.0,SE,8.1,-,N/A,,Clear,130,2012-12-06 14:56:00
10:56 AM,30.0,19.0,64,30.33,10.0,ESE,4.6,-,N/A,,Clear,120,2012-12-06 15:56:00
11:56 AM,35.1,18.0,50,30.27,10.0,SE,9.2,-,N/A,,Clear,140,2012-12-06 16:56:00
12:56 PM,39.0,17.1,41,30.24,10.0,SSE,6.9,-,N/A,,Clear,150,2012-12-06 17:56:00
1:56 PM,42.1,16.0,35,30.20,10.0,SSE,6.9,-,N/A,,Clear,150,2012-12-06 18:56:00
2:56 PM,42.1,14.0,32,30.19,10.0,SE,9.2,-,N/A,,Clear,140,2012-12-06 19:56:00
3:56 PM,39.9,12.0,32,30.19,10.0,SSE,6.9,-,N/A,,Clear,150,2012-12-06 20:56:00
4:56 PM,37.9,10.9,33,30.18,10.0,SSE,8.1,-,N/A,,Clear,150,2012-12-06 21:56:00
5:56 PM,36.0,10.9,36,30.17,10.0,SSE,8.1,-,N/A,,Clear,150,2012-12-06 22:56:00
6:56 PM,34.0,12.0,40,30.17,10.0,SE,6.9,-,N/A,,Clear,140,2012-12-06 23:56:00
7:56 PM,35.1,10.9,37,30.16,10.0,SSE,9.2,-,N/A,,Clear,160,2012-12-07 00:56:00
8:56 PM,35.1,14.0,42,30.15,10.0,SSE,6.9,-,N/A,,Clear,160,2012-12-07 01:56:00
9:56 PM,34.0,16.0,48,30.14,10.0,SE,8.1,17.3,N/A,,Clear,140,2012-12-07 02:56:00
10:56 PM,34.0,17.1,50,30.12,10.0,SSW,8.1,-,N/A,,Clear,200,2012-12-07 03:56:00
11:56 PM,33.1,18.0,54,30.09,10.0,SSE,8.1,17.3,N/A,,Clear,160,2012-12-07 04:56:00